Location: Sperry Observatory
(40.6664°N, 74.3236°W)
Time: 01:22:39
(UTC-04:00)

Amateur Radio Satellites - All Passes

Search period start: 21 October 2014 00:52
Search period end: 22 October 2014 00:52
Location: Sperry Observatory, 40.6664°N, 74.3236°W

Satellite Date Start Highest point End Downlink Frequencies (MHz)
Time Altitude Azimuth
Oscar 19 21 Oct 01:43:09 01:47:20 25° 95° (E) 01:51:30 437.125 CW, 437.150 USB
MaSat-1 21 Oct 01:44:53 01:48:41 31° 301° (WNW) 01:52:11 437.345 MHz
AO-27 21 Oct 01:51:43 01:53:34 12° 89° (E) 01:55:25 436.795 MHz FM
UOSAT-12 21 Oct 02:03:32 02:07:01 21° 249° (WSW) 02:10:27 437.025 FM, 437.400 FM
RS-15 21 Oct 02:18:43 02:27:27 26° 334° (NNW) 02:36:17 29.354 - 29.394 USB, Beacon 29.352 USB
JAS-1B 21 Oct 02:26:59 02:33:21 55° 102° (ESE) 02:40:53 435.800 - 435.900 CW/SSB
Oscar 16 21 Oct 02:27:29 02:32:37 69° 102° (ESE) 02:37:42 437.025 USB, Beacon 2401.1428
Gurwin Techsat 1B 21 Oct 02:39:13 02:42:51 18° 92° (E) 02:46:27 435.225 FM
Uribyol 2 21 Oct 02:39:20 02:44:10 37° 98° (E) 02:48:56 436.500 FM
ITAMSAT 1 21 Oct 02:44:11 02:49:04 39° 98° (E) 02:53:54 435.822 SSB
TMSAT-1 21 Oct 02:53:20 02:56:58 18° 92° (E) 03:00:34 436.925 FM
AO-Echo 21 Oct 02:57:32 03:02:50 70° 102° (ESE) 03:08:08 ?
Oscar 19 21 Oct 03:22:03 03:26:45 38° 291° (WNW) 03:31:26 437.125 CW, 437.150 USB
AO-27 21 Oct 03:28:25 03:33:40 80° 285° (WNW) 03:38:53 436.795 MHz FM
OPAL 21 Oct 03:35:28 03:37:13 12° 56° (ENE) 03:38:57 ?
AO-7 21 Oct 03:41:54 03:46:31 16° 89° (E) 03:51:07 29.400 - 29.500 MHz
Sapphire 21 Oct 04:02:42 04:06:43 22° 106° (ESE) 04:10:45 437.095 MHz 1200 baud AX-25 AFSK
Oscar 16 21 Oct 04:08:29 04:11:22 15° 299° (WNW) 04:14:14 437.025 USB, Beacon 2401.1428
Gurwin Techsat 1B 21 Oct 04:17:57 04:23:08 55° 288° (WNW) 04:28:17 435.225 FM
JAS-1B 21 Oct 04:18:34 04:23:44 27° 295° (WNW) 04:29:35 435.800 - 435.900 CW/SSB
Uribyol 2 21 Oct 04:19:07 04:23:27 27° 294° (WNW) 04:27:46 436.500 FM
ITAMSAT 1 21 Oct 04:24:04 04:28:21 26° 294° (WNW) 04:32:37 435.822 SSB
PCSat 21 Oct 04:24:38 04:29:33 37° 111° (ESE) 04:34:30 145.825 MHz
TMSAT-1 21 Oct 04:32:01 04:37:12 54° 288° (WNW) 04:42:21 436.925 FM
RS-15 21 Oct 04:37:35 04:45:11 20° 10° (N) 04:52:55 29.354 - 29.394 USB, Beacon 29.352 USB
AO-Echo 21 Oct 04:37:51 04:40:59 16° 298° (WNW) 04:44:08 ?
Uosat F 21 Oct 04:39:16 04:43:30 26° 95° (E) 04:47:42 435.120 FM
OPAL 21 Oct 05:10:08 05:15:19 86° 73° (ENE) 05:20:28 ?
AO-27 21 Oct 05:11:10 05:12:18 11° 303° (WNW) 05:13:25 436.795 MHz FM
JAS-2 21 Oct 05:20:34 05:26:47 26° 91° (E) 05:33:02 435.800 - 435.900 CW/SSB, 435.910 FM
AO-7 21 Oct 05:32:02 05:40:24 84° 108° (ESE) 05:48:45 29.400 - 29.500 MHz
Sapphire 21 Oct 05:44:28 05:49:44 52° 303° (WNW) 05:55:03 437.095 MHz 1200 baud AX-25 AFSK
PCSat 21 Oct 06:08:09 06:12:59 32° 309° (NW) 06:17:52 145.825 MHz
Uosat F 21 Oct 06:17:44 06:22:19 36° 292° (WNW) 06:26:53 435.120 FM
STRAND 1 21 Oct 06:47:51 06:52:56 71° 74° (ENE) 06:58:04 ?
RS-15 21 Oct 06:51:11 07:01:38 43° 43° (NE) 07:12:25 29.354 - 29.394 USB, Beacon 29.352 USB
OPAL 21 Oct 06:53:33 06:54:46 11° 269° (W) 06:56:00 ?
Hamsat 21 Oct 07:00:38 07:04:49 73° 284° (WNW) 07:09:00 145.90 MHz
JAS-2 21 Oct 07:04:35 07:12:11 68° 288° (WNW) 07:19:58 435.800 - 435.900 CW/SSB, 435.910 FM
AO-7 21 Oct 07:26:09 07:32:14 24° 307° (NW) 07:38:21 29.400 - 29.500 MHz
Sapphire 21 Oct 07:33:40 07:34:28 10° 325° (NW) 07:35:16 437.095 MHz 1200 baud AX-25 AFSK
SO-67 21 Oct 07:58:37 08:02:04 69° 101° (E) 08:05:30 435.3500 MHz FM
Saudisat 1A 21 Oct 08:04:31 08:08:08 26° 113° (ESE) 08:11:46 436.775 MHz
STRAND 1 21 Oct 08:30:16 08:32:38 13° 270° (W) 08:35:00 ?
HO-68 21 Oct 08:49:55 08:55:20 22° 93° (E) 09:00:42 435.675 MHz FM
JAS-2 21 Oct 08:52:05 08:55:55 15° 306° (NW) 08:59:48 435.800 - 435.900 CW/SSB, 435.910 FM
RS-15 21 Oct 09:03:35 09:14:31 63° 246° (WSW) 09:25:57 29.354 - 29.394 USB, Beacon 29.352 USB
Saudisat 1A 21 Oct 09:43:32 09:47:33 34° 310° (NW) 09:51:35 436.775 MHz
UKube-1 21 Oct 09:52:21 09:55:48 22° 95° (E) 09:59:13 145.840 MHz, 145.915 MHz
MaSat-1 21 Oct 09:56:29 09:58:48 25° 58° (ENE) 10:00:57 437.345 MHz
FUNcube-1 21 Oct 10:25:18 10:28:24 19° 93° (E) 10:31:26 145.950 - 145.970 MHz USB
HO-68 21 Oct 10:36:25 10:43:33 67° 290° (WNW) 10:50:39 435.675 MHz FM
Oscar 11 21 Oct 10:36:55 10:41:13 66° 101° (E) 10:45:29 145.825 FM, Beacon 2401.500 USB
PANSAT 21 Oct 11:09:19 11:11:11 13° 180° (S) 11:13:04 not established
ZACube-1 21 Oct 11:14:54 11:19:13 73° 102° (ESE) 11:23:24 437.345 MHz
RS-15 21 Oct 11:21:34 11:24:33 11° 265° (W) 11:27:35 29.354 - 29.394 USB, Beacon 29.352 USB
UKube-1 21 Oct 11:28:07 11:32:00 32° 291° (WNW) 11:35:52 145.840 MHz, 145.915 MHz
KITSAT 1 21 Oct 11:54:28 12:00:39 25° 104° (ESE) 12:06:51 435.175 FM
FUNcube-1 21 Oct 12:01:00 12:04:53 34° 290° (WNW) 12:08:41 145.950 - 145.970 MHz USB
Oscar 16 21 Oct 12:08:31 12:10:39 13° 59° (ENE) 12:12:47 437.025 USB, Beacon 2401.1428
Oscar 11 21 Oct 12:15:17 12:16:50 12° 298° (WNW) 12:18:21 145.825 FM, Beacon 2401.500 USB
HO-68 21 Oct 12:26:49 12:29:56 13° 309° (NW) 12:33:02 435.675 MHz FM
AO-Echo 21 Oct 12:36:35 12:37:12 10° 58° (ENE) 12:37:48 ?
Sapphire 21 Oct 12:50:08 12:54:05 20° 45° (NE) 12:58:00 437.095 MHz 1200 baud AX-25 AFSK
SO-50 21 Oct 12:51:27 12:53:33 13° 108° (ESE) 12:55:40 436.795 FM
ZACube-1 21 Oct 12:54:09 12:54:58 11° 299° (WNW) 12:55:47 437.345 MHz
Oscar 19 21 Oct 12:59:37 13:04:17 36° 69° (ENE) 13:08:57 437.125 CW, 437.150 USB
AO-27 21 Oct 13:08:49 13:12:26 20° 63° (ENE) 13:16:05 436.795 MHz FM
PCSat 21 Oct 13:12:41 13:17:27 30° 50° (NE) 13:22:10 145.825 MHz
JAS-1B 21 Oct 13:13:39 13:19:19 41° 69° (ENE) 13:24:37 435.800 - 435.900 CW/SSB
Oscar 16 21 Oct 13:44:05 13:49:16 85° 256° (WSW) 13:54:27 437.025 USB, Beacon 2401.1428
KITSAT 1 21 Oct 13:47:15 13:55:18 72° 303° (WNW) 14:03:24 435.175 FM
Uribyol 2 21 Oct 13:56:46 14:01:51 55° 72° (ENE) 14:06:57 436.500 FM
Gurwin Techsat 1B 21 Oct 13:59:47 14:04:17 29° 66° (ENE) 14:08:48 435.225 FM
ITAMSAT 1 21 Oct 14:01:47 14:06:52 57° 72° (ENE) 14:12:00 435.822 SSB
ISS 21 Oct 14:01:58 14:05:08 44° 138° (SE) 14:08:21 145.800 FM
AO-Echo 21 Oct 14:10:15 14:15:04 85° 76° (ENE) 14:20:06 ?
TMSAT-1 21 Oct 14:13:35 14:18:03 29° 66° (ENE) 14:22:33 436.925 FM
SO-50 21 Oct 14:29:02 14:33:29 66° 305° (NW) 14:38:06 436.795 FM
Sapphire 21 Oct 14:32:37 14:38:03 70° 244° (WSW) 14:43:25 437.095 MHz 1200 baud AX-25 AFSK
UOSAT-12 21 Oct 14:35:39 14:38:04 14° 108° (ESE) 14:40:31 437.025 FM, 437.400 FM
Oscar 19 21 Oct 14:39:19 14:43:39 27° 265° (W) 14:48:00 437.125 CW, 437.150 USB
AO-7 21 Oct 14:40:29 14:46:46 25° 54° (NE) 14:53:04 29.400 - 29.500 MHz
AO-27 21 Oct 14:46:26 14:51:31 54° 259° (W) 14:56:39 436.795 MHz FM
PCSat 21 Oct 14:55:53 15:00:57 41° 249° (WSW) 15:05:58 145.825 MHz
JAS-1B 21 Oct 15:05:10 15:10:10 25° 264° (W) 15:14:51 435.800 - 435.900 CW/SSB
Uribyol 2 21 Oct 15:38:09 15:41:38 18° 268° (W) 15:45:09 436.500 FM
ISS 21 Oct 15:39:03 15:41:57 27° 335° (NNW) 15:44:52 145.800 FM
Gurwin Techsat 1B 21 Oct 15:39:17 15:44:07 36° 263° (W) 15:48:59 435.225 FM
Oscar 10/S400 21 Oct 15:42:13 15:59:58 52° 161° (SSE) 16:39:57 145.825 - 145.975 CW/USB, Beacon 145.810 USB
ITAMSAT 1 21 Oct 15:43:23 15:46:43 17° 268° (W) 15:50:05 435.822 SSB
KITSAT 1 21 Oct 15:46:30 15:52:15 21° 326° (NNW) 15:58:01 435.175 FM
Uosat F 21 Oct 15:52:10 15:56:42 36° 68° (ENE) 16:01:16 435.120 FM
TMSAT-1 21 Oct 15:52:59 15:57:49 36° 263° (W) 16:02:42 436.925 FM
UOSAT-12 21 Oct 16:13:03 16:17:39 65° 305° (NW) 16:22:21 437.025 FM, 437.400 FM
SO-50 21 Oct 16:13:29 16:14:59 11° 325° (NW) 16:16:30 436.795 FM
AO-7 21 Oct 16:30:26 16:38:43 78° 253° (WSW) 16:47:03 29.400 - 29.500 MHz
Saudisat 1A 21 Oct 16:31:05 16:34:35 22° 45° (NE) 16:38:03 436.775 MHz
JAS-2 21 Oct 17:16:36 17:22:10 53° 70° (ENE) 17:28:29 435.800 - 435.900 CW/SSB, 435.910 FM
ISS 21 Oct 17:17:52 17:19:31 13° 355° (N) 17:21:10 145.800 FM
OPAL 21 Oct 17:21:17 17:25:06 22° 96° (E) 17:28:52 ?
Uosat F 21 Oct 17:31:22 17:35:32 26° 265° (W) 17:39:43 435.120 FM
Hamsat 21 Oct 17:53:17 17:57:30 75° 76° (ENE) 18:01:42 145.90 MHz
UOSAT-12 21 Oct 17:57:02 17:58:44 12° 325° (NW) 18:00:27 437.025 FM, 437.400 FM
Saudisat 1A 21 Oct 18:10:07 18:14:21 45° 243° (WSW) 18:18:32 436.775 MHz
AO-7 21 Oct 18:28:48 18:32:43 14° 272° (W) 18:36:39 29.400 - 29.500 MHz
SO-67 21 Oct 18:31:31 18:34:08 21° 70° (ENE) 18:36:46 435.3500 MHz FM
ISS 21 Oct 18:54:58 18:57:16 17° 16° (NNE) 18:59:33 145.800 FM
STRAND 1 21 Oct 18:59:26 19:03:38 25° 95° (E) 19:07:47 ?
OPAL 21 Oct 18:59:28 19:04:08 42° 292° (WNW) 19:08:46 ?
JAS-2 21 Oct 19:03:20 19:07:44 22° 271° (W) 19:12:33 435.800 - 435.900 CW/SSB, 435.910 FM
HO-68 21 Oct 19:19:49 19:24:19 18° 54° (NE) 19:28:49 435.675 MHz FM
KITSAT 1 21 Oct 19:46:26 19:51:20 17° 28° (NNE) 19:56:13 435.175 FM
SO-67 21 Oct 20:04:24 20:07:01 20° 265° (W) 20:09:39 435.3500 MHz FM
ISS 21 Oct 20:31:08 20:34:28 66° 34° (NE) 20:37:47 145.800 FM
STRAND 1 21 Oct 20:38:08 20:42:55 39° 291° (WNW) 20:47:39 ?
UKube-1 21 Oct 20:47:56 20:51:05 20° 66° (ENE) 20:54:16 145.840 MHz, 145.915 MHz
HO-68 21 Oct 21:03:52 21:11:02 89° 73° (ENE) 21:18:16 435.675 MHz FM
RS-15 21 Oct 21:18:21 21:25:54 22° 101° (E) 21:33:22 29.354 - 29.394 USB, Beacon 29.352 USB
SO-50 21 Oct 21:21:22 21:24:28 17° 40° (NE) 21:27:35 436.795 FM
FUNcube-1 21 Oct 21:21:35 21:24:39 18° 65° (ENE) 21:27:41 145.950 - 145.970 MHz USB
Oscar 11 21 Oct 21:31:28 21:35:39 49° 73° (ENE) 21:39:50 145.825 FM, Beacon 2401.500 USB
KITSAT 1 21 Oct 21:40:53 21:48:48 55° 53° (NE) 21:56:39 435.175 FM
ISS 21 Oct 22:09:01 22:10:47 14° 230° (SW) 22:12:33 145.800 FM
ZACube-1 21 Oct 22:10:29 22:15:00 57° 74° (ENE) 22:19:29 437.345 MHz
UKube-1 21 Oct 22:22:59 22:27:01 37° 262° (W) 22:31:05 145.840 MHz, 145.915 MHz
HO-68 21 Oct 22:55:36 22:59:36 16° 271° (W) 23:03:37 435.675 MHz FM
FUNcube-1 21 Oct 22:56:13 23:00:39 47° 261° (W) 23:05:04 145.950 - 145.970 MHz USB
SO-50 21 Oct 23:00:46 23:05:37 82° 239° (WSW) 23:10:31 436.795 FM
UOSAT-12 21 Oct 23:04:05 23:06:57 16° 40° (NE) 23:09:49 437.025 FM, 437.400 FM
Oscar 11 21 Oct 23:09:45 23:12:05 14° 269° (W) 23:14:27 145.825 FM, Beacon 2401.500 USB
RS-15 21 Oct 23:25:39 23:36:42 89° 301° (WNW) 23:47:41 29.354 - 29.394 USB, Beacon 29.352 USB
MaSat-1 21 Oct 23:34:54 23:36:57 13° 105° (ESE) 23:38:56 437.345 MHz
KITSAT 1 21 Oct 23:36:47 23:43:51 35° 252° (WSW) 23:50:54 435.175 FM
ZACube-1 21 Oct 23:49:19 23:51:42 14° 269° (W) 23:54:05 437.345 MHz
UOSAT-12 22 Oct 00:43:00 00:47:44 84° 239° (WSW) 00:52:22 437.025 FM, 437.400 FM
